Location: Newark
(0.5300°S, 127.4800°E)
Time: 05:39:37
(UTC+00:00)

A-11 Canister half - Pass Details

Date: 25 September 2019
Orbit: 1514 x 1686 km, 47.2° (Epoch: 14 October)

Event Time Altitude Azimuth Distance (km) Brightness Sun altitude
Rises 09:49:22 0° 309° (NW) 4,708 12.4 -6.9°
Reaches altitude 10° 09:52:28 10° 305° (NW) 3,747 12.0 -7.6°
Maximum altitude 10:01:41 54° 230° (SW) 1,889 9.8 -9.9°
Drops below altitude 10° 10:11:17 10° 155° (SSE) 3,889 10.9 -12.3°
Sets 10:14:36 0° 150° (SSE) 4,897 11.4 -13.2°
